Simultaneous Nadir Overpasses (SNOs) Predictions

Prediction of SNOs between AQUA and METOP-B Satellite Orbit:

Table of predicted SNOs for the next 14.0 days since TLE Epoch: 12/28/2013
Index Date (AQUA) Time (AQUA) Lat,Lon (AQUA) SZA (AQUA ) Date (METOP-B) Time (METOP-B) Lat,Lon (METOP-B) SZA (METOP-B ) Distance(km) Time Diff (sec)
1 12/28/2013 12:38:19 -73.65, 165.01 83.11 12/28/2013 12:37:13 -73.66, 164.97 83.10 1.58 66
2 12/28/2013 13:27:48 73.72, -27.50 96.96 12/28/2013 13:27:51 73.72, -27.54 96.97 1.26 3
3 12/28/2013 14:17:17 -73.91, 139.73 82.85 12/28/2013 14:18:29 -73.93, 140.29 82.84 17.41 72
4 12/31/2013 08:12:34 -73.67,-128.58 83.27 12/31/2013 08:11:36 -73.66,-128.61 83.26 1.12 58
5 12/31/2013 09:02:03 73.74, 38.90 96.81 12/31/2013 09:02:14 73.73, 38.88 96.80 1.26 11
6 12/31/2013 09:51:38 -74.23,-154.57 82.67 12/31/2013 09:52:46 -74.23,-152.56 82.73 60.87 68
7 01/03/2014 03:46:48 -73.66, -62.13 83.50 01/03/2014 03:45:59 -73.66, -62.20 83.50 2.47 49
8 01/03/2014 04:36:17 73.74, 105.34 96.58 01/03/2014 04:36:37 73.73, 105.29 96.57 1.85 20
9 01/05/2014 23:21:01 -73.69, 4.26 83.76 01/05/2014 23:20:20 -73.70, 4.30 83.75 1.64 41
10 01/06/2014 00:10:30 73.78, 171.71 96.33 01/06/2014 00:10:58 73.78, 171.81 96.32 2.87 28
11 01/08/2014 18:55:14 -73.70, 70.69 84.10 01/08/2014 18:54:43 -73.69, 70.67 84.11 1.99 31
12 01/08/2014 19:44:42 73.74,-121.75 95.93 01/08/2014 19:45:21 73.76,-121.81 95.96 3.29 39




NCC Satellite Simultaneous Nadir Overpasses (SNOs) Prediction Service
